owner,sensor,date,latitude,longitude,vertical_datum,wind_speed,wind_to_direction,wind_speed_of_gust,qcFlag 
TABS,ioos:station:wmo:42046:1,2014-05-01T00:00:00Z,27.8903,-94.0367,4.0,6.003748829,23.87501456,7.26,'11111222,11111222,11111222' 
TABS,ioos:station:wmo:42046:1,2014-05-01T00:30:00Z,27.8903,-94.0367,4.0,4.931135772,31.82035334,6.23,'11111222,11111222,11111222' 
TABS,ioos:station:wmo:42046:1,2014-05-01T01:00:00Z,27.8903,-94.0367,4.0,5.175886398,28.00058317,6.74,'11111222,11111222,11111222' 
TABS,ioos:station:wmo:42046:1,2014-05-01T01:30:00Z,27.8903,-94.0367,4.0,4.967293025,24.5009637,6.29,'11111222,11111222,11111222' 
TABS,ioos:station:wmo:42046:1,2014-05-01T02:00:00Z,27.8903,-94.0367,4.0,5.201326754,27.1066817,6.59,'11111222,11111222,11111222' 
TABS,ioos:station:wmo:42046:1,2014-05-01T02:30:00Z,27.8903,-94.0367,4.0,4.384746287,28.31817936,5.21,'11111222,11111222,11111222' 
TABS,ioos:station:wmo:42046:1,2014-05-01T03:00:00Z,27.8903,-94.0367,4.0,4.489376349,13.78837063,5.92,'11111222,11111222,11111222' 
TABS,ioos:station:wmo:42046:1,2014-05-01T03:30:00Z,27.8903,-94.0367,4.0,4.398408803,16.37458905,5.24,'11111222,11111222,11111222' 
TABS,ioos:station:wmo:42046:1,2014-05-01T04:00:00Z,27.8903,-94.0367,4.0,4.354365625,30.80551049,5.09,'11111222,11111222,11111222' 
TABS,ioos:station:wmo:42046:1,2014-05-01T04:30:00Z,27.8903,-94.0367,4.0,3.515124464,26.34609399,4.39,'11111222,11111222,11111222' 
TABS,ioos:station:wmo:42046:1,2014-05-01T05:00:00Z,27.8903,-94.0367,4.0,4.354044097,24.563484,5.09,'11111222,11111222,11111222' 
TABS,ioos:station:wmo:42046:1,2014-05-01T05:30:00Z,27.8903,-94.0367,4.0,4.308897771,28.40855001,5.37,'11111222,11111222,11111222' 
TABS,ioos:station:wmo:42046:1,2014-05-01T06:00:00Z,27.8903,-94.0367,4.0,4.824033582,14.03600019,5.86,'11111222,11111222,11111222' 
TABS,ioos:station:wmo:42046:1,2014-05-01T06:30:00Z,27.8903,-94.0367,4.0,5.048762225,7.969381299,6.13,'11111222,11111222,11111222' 
TABS,ioos:station:wmo:42046:1,2014-05-01T07:00:00Z,27.8903,-94.0367,4.0,7.107460869,6.624839915,8.79,'11111222,11111222,11111222' 
TABS,ioos:station:wmo:42046:1,2014-05-01T07:30:00Z,27.8903,-94.0367,4.0,7.112538225,1.5305325,8.41,'11111222,11111222,11111222' 
TABS,ioos:station:wmo:42046:1,2014-05-01T08:00:00Z,27.8903,-94.0367,4.0,7.183160864,10.18332882,8.78,'11111222,11111222,11111222' 
TABS,ioos:station:wmo:42046:1,2014-05-01T08:30:00Z,27.8903,-94.0367,4.0,9.154758326,23.42842756,11.05,'11111222,11111222,11111222' 
TABS,ioos:station:wmo:42046:1,2014-05-01T09:00:00Z,27.8903,-94.0367,4.0,9.78529509,26.98375208,11.23,'11111222,11111222,11111222' 
TABS,ioos:station:wmo:42046:1,2014-05-01T09:30:00Z,27.8903,-94.0367,4.0,9.700072165,26.64402564,12.02,'11111222,11111222,11111222' 
TABS,ioos:station:wmo:42046:1,2014-05-01T10:00:00Z,27.8903,-94.0367,4.0,9.708099711,37.12928279,11.62,'11111222,11111222,11111222' 
TABS,ioos:station:wmo:42046:1,2014-05-01T10:30:00Z,27.8903,-94.0367,4.0,9.827685384,35.80847587,11.62,'11111222,11111222,11111222' 
TABS,ioos:station:wmo:42046:1,2014-05-01T11:00:00Z,27.8903,-94.0367,4.0,9.862220845,37.25303802,11.75,'11111222,11111222,11111222' 
TABS,ioos:station:wmo:42046:1,2014-05-01T11:30:00Z,27.8903,-94.0367,4.0,9.939763579,41.451326,11.68,'11111222,11111222,11111222' 
TABS,ioos:station:wmo:42046:1,2014-05-01T12:00:00Z,27.8903,-94.0367,4.0,9.639050783,38.72448946,11.33,'11111222,11111222,11111222' 
TABS,ioos:station:wmo:42046:1,2014-05-01T12:30:00Z,27.8903,-94.0367,4.0,9.920831618,44.71382103,11.92,'11111222,11111222,11111222' 
TABS,ioos:station:wmo:42046:1,2014-05-01T13:00:00Z,27.8903,-94.0367,4.0,9.593774023,40.7305439,11.57,'11111222,11111222,11111222' 
TABS,ioos:station:wmo:42046:1,2014-05-01T13:30:00Z,27.8903,-94.0367,4.0,9.589765378,37.96900698,10.91,'11111222,11111222,11111222' 
TABS,ioos:station:wmo:42046:1,2014-05-01T14:00:00Z,27.8903,-94.0367,4.0,9.434087131,44.05486426,10.85,'11111222,11111222,11111222' 
TABS,ioos:station:wmo:42046:1,2014-05-01T14:30:00Z,27.8903,-94.0367,4.0,9.422101676,46.54783839,11.14,'11111222,11111222,11111222' 
TABS,ioos:station:wmo:42046:1,2014-05-01T15:00:00Z,27.8903,-94.0367,4.0,8.93642546,42.95913494,11.11,'11111222,11111222,11111222' 
TABS,ioos:station:wmo:42046:1,2014-05-01T15:30:00Z,27.8903,-94.0367,4.0,10.01882728,51.76856578,12.23,'11111222,11111222,11111222' 
TABS,ioos:station:wmo:42046:1,2014-05-01T16:00:00Z,27.8903,-94.0367,4.0,9.916904759,55.2679661,11.89,'11111222,11111222,11111222' 
TABS,ioos:station:wmo:42046:1,2014-05-01T16:30:00Z,27.8903,-94.0367,4.0,9.407932823,51.4730182,11.66,'11111222,11111222,11111222' 
TABS,ioos:station:wmo:42046:1,2014-05-01T17:00:00Z,27.8903,-94.0367,4.0,9.182298187,53.59151738,11.07,'11111222,11111222,11111222' 
TABS,ioos:station:wmo:42046:1,2014-05-01T17:30:00Z,27.8903,-94.0367,4.0,9.303359608,64.39860847,11.01,'11111222,11111222,11111222' 
TABS,ioos:station:wmo:42046:1,2014-05-01T18:00:00Z,27.8903,-94.0367,4.0,9.124368471,52.61484915,10.9,'11111222,11111222,11111222' 
TABS,ioos:station:wmo:42046:1,2014-05-01T18:30:00Z,27.8903,-94.0367,4.0,8.660121246,48.04197072,10.75,'11111222,11111222,11111222' 
TABS,ioos:station:wmo:42046:1,2014-05-01T19:00:00Z,27.8903,-94.0367,4.0,7.559133548,45.37486091,9.09,'11111222,11111222,11111222' 
TABS,ioos:station:wmo:42046:1,2014-05-01T19:30:00Z,27.8903,-94.0367,4.0,6.533314626,48.72300126,8.64,'11111222,11111222,11111222' 
TABS,ioos:station:wmo:42046:1,2014-05-01T20:00:00Z,27.8903,-94.0367,4.0,6.343287791,48.89872072,8.28,'11111222,11111222,11111222' 
TABS,ioos:station:wmo:42046:1,2014-05-01T20:30:00Z,27.8903,-94.0367,4.0,6.361485676,49.39837938,7.66,'11111222,11111222,11111222' 
TABS,ioos:station:wmo:42046:1,2014-05-01T21:00:00Z,27.8903,-94.0367,4.0,6.707674709,38.76622791,8.31,'11111222,11111222,11111222' 
TABS,ioos:station:wmo:42046:1,2014-05-01T21:30:00Z,27.8903,-94.0367,4.0,7.899392382,59.40907018,9.5,'11111222,11111222,11111222' 
TABS,ioos:station:wmo:42046:1,2014-05-01T22:00:00Z,27.8903,-94.0367,4.0,6.211360559,51.93051707,7.54,'11111222,11111222,11111222' 
TABS,ioos:station:wmo:42046:1,2014-05-01T22:30:00Z,27.8903,-94.0367,4.0,6.015878988,51.07212652,7.29,'11111222,11111222,11111222' 
TABS,ioos:station:wmo:42046:1,2014-05-01T23:00:00Z,27.8903,-94.0367,4.0,6.224082262,52.8351911,7.85,'11111222,11111222,11111222' 
TABS,ioos:station:wmo:42046:1,2014-05-01T23:30:00Z,27.8903,-94.0367,4.0,5.967285815,47.64848388,7.54,'11111222,11111222,11111222' 
TABS,ioos:station:wmo:42046:1,2014-05-02T00:00:00Z,27.8903,-94.0367,4.0,5.574737662,50.31253471,7.0,'11111222,11111222,11111222' 
TABS,ioos:station:wmo:42046:1,2014-05-02T00:30:00Z,27.8903,-94.0367,4.0,4.338767106,47.52167974,5.82,'11111222,11111222,11111222' 
TABS,ioos:station:wmo:42046:1,2014-05-02T01:00:00Z,27.8903,-94.0367,4.0,3.911521443,41.26829604,5.21,'11111222,11111222,11111222' 
TABS,ioos:station:wmo:42046:1,2014-05-02T01:30:00Z,27.8903,-94.0367,4.0,4.19440103,36.07729396,5.66,'11111222,11111222,11111222' 
TABS,ioos:station:wmo:42046:1,2014-05-02T02:00:00Z,27.8903,-94.0367,4.0,4.610260296,32.69013621,5.94,'11111222,11111222,11111222' 
TABS,ioos:station:wmo:42046:1,2014-05-02T02:30:00Z,27.8903,-94.0367,4.0,4.157691667,30.01808677,5.45,'11111222,11111222,11111222' 
TABS,ioos:station:wmo:42046:1,2014-05-02T03:00:00Z,27.8903,-94.0367,4.0,4.646654711,37.83142631,5.99,'11111222,11111222,11111222' 
TABS,ioos:station:wmo:42046:1,2014-05-02T03:30:00Z,27.8903,-94.0367,4.0,5.254379126,45.84787551,6.78,'11111222,11111222,11111222' 
TABS,ioos:station:wmo:42046:1,2014-05-02T04:00:00Z,27.8903,-94.0367,4.0,3.284417757,50.93119737,4.28,'11111222,11111222,11111222' 
TABS,ioos:station:wmo:42046:1,2014-05-02T04:30:00Z,27.8903,-94.0367,4.0,3.931462832,23.69587068,5.02,'11111222,11111222,11111222' 
TABS,ioos:station:wmo:42046:1,2014-05-02T05:00:00Z,27.8903,-94.0367,4.0,4.535063395,25.88675527,5.8,'11111222,11111222,11111222' 
TABS,ioos:station:wmo:42046:1,2014-05-02T05:30:00Z,27.8903,-94.0367,4.0,5.203239376,21.53532433,6.29,'11111222,11111222,11111222' 
TABS,ioos:station:wmo:42046:1,2014-05-02T06:00:00Z,27.8903,-94.0367,4.0,4.788162487,20.66782888,6.05,'11111222,11111222,11111222' 
TABS,ioos:station:wmo:42046:1,2014-05-02T06:30:00Z,27.8903,-94.0367,4.0,5.869625201,16.42785221,7.08,'11111222,11111222,11111222' 
TABS,ioos:station:wmo:42046:1,2014-05-02T07:00:00Z,27.8903,-94.0367,4.0,5.614846391,19.88694983,7.07,'11111222,11111222,11111222' 
TABS,ioos:station:wmo:42046:1,2014-05-02T07:30:00Z,27.8903,-94.0367,4.0,5.306269876,23.66620858,6.53,'11111222,11111222,11111222' 
TABS,ioos:station:wmo:42046:1,2014-05-02T08:00:00Z,27.8903,-94.0367,4.0,4.932585529,24.17451497,6.11,'11111222,11111222,11111222' 
TABS,ioos:station:wmo:42046:1,2014-05-02T08:30:00Z,27.8903,-94.0367,4.0,5.40940847,22.1551846,6.64,'11111222,11111222,11111222' 
TABS,ioos:station:wmo:42046:1,2014-05-02T09:00:00Z,27.8903,-94.0367,4.0,5.732451483,15.2724049,6.94,'11111222,11111222,11111222' 
TABS,ioos:station:wmo:42046:1,2014-05-02T09:30:00Z,27.8903,-94.0367,4.0,5.266725738,7.637548627,6.44,'11111222,11111222,11111222' 
TABS,ioos:station:wmo:42046:1,2014-05-02T10:00:00Z,27.8903,-94.0367,4.0,5.988397114,12.34176883,7.44,'11111222,11111222,11111222' 
TABS,ioos:station:wmo:42046:1,2014-05-02T10:30:00Z,27.8903,-94.0367,4.0,6.369246423,10.12760023,7.42,'11111222,11111222,11111222' 
TABS,ioos:station:wmo:42046:1,2014-05-02T11:00:00Z,27.8903,-94.0367,4.0,7.116326299,2.415894177,8.58,'11111222,11111222,11111222' 
TABS,ioos:station:wmo:42046:1,2014-05-02T11:30:00Z,27.8903,-94.0367,4.0,6.984017468,15.1901155,8.7,'11111222,11111222,11111222' 
TABS,ioos:station:wmo:42046:1,2014-05-02T12:00:00Z,27.8903,-94.0367,4.0,6.709135563,13.26961824,8.01,'11111222,11111222,11111222' 
TABS,ioos:station:wmo:42046:1,2014-05-02T12:30:00Z,27.8903,-94.0367,4.0,6.454843143,16.46943928,7.89,'11111222,11111222,11111222' 
TABS,ioos:station:wmo:42046:1,2014-05-02T13:00:00Z,27.8903,-94.0367,4.0,6.612359639,18.24288845,7.92,'11111222,11111222,11111222' 
TABS,ioos:station:wmo:42046:1,2014-05-02T13:30:00Z,27.8903,-94.0367,4.0,5.683388074,9.826708421,6.59,'11111222,11111222,11111222' 
TABS,ioos:station:wmo:42046:1,2014-05-02T14:00:00Z,27.8903,-94.0367,4.0,6.923496227,15.24035632,8.71,'11111222,11111222,11111222' 
TABS,ioos:station:wmo:42046:1,2014-05-02T14:30:00Z,27.8903,-94.0367,4.0,6.744983321,4.932724635,8.18,'11111222,11111222,11111222' 
TABS,ioos:station:wmo:42046:1,2014-05-02T15:00:00Z,27.8903,-94.0367,4.0,7.126570002,13.13900074,8.68,'11111222,11111222,11111222' 
TABS,ioos:station:wmo:42046:1,2014-05-02T15:30:00Z,27.8903,-94.0367,4.0,6.696043608,5.054763416,7.87,'11111222,11111222,11111222' 
TABS,ioos:station:wmo:42046:1,2014-05-02T16:00:00Z,27.8903,-94.0367,4.0,5.941018431,358.9388803,6.86,'11111222,11111222,11111222' 
TABS,ioos:station:wmo:42046:1,2014-05-02T16:30:00Z,27.8903,-94.0367,4.0,4.708768416,5.117092425,6.8,'11111222,11111222,11111222' 
TABS,ioos:station:wmo:42046:1,2014-05-02T17:00:00Z,27.8903,-94.0367,4.0,4.239929245,356.0778562,5.41,'11111222,11111222,11111222' 
TABS,ioos:station:wmo:42046:1,2014-05-02T17:30:00Z,27.8903,-94.0367,4.0,4.391138804,358.6948752,5.39,'11111222,11111222,11111222' 
TABS,ioos:station:wmo:42046:1,2014-05-02T18:00:00Z,27.8903,-94.0367,4.0,6.874009019,352.8127592,7.98,'11111222,11111222,11111222' 
TABS,ioos:station:wmo:42046:1,2014-05-02T18:30:00Z,27.8903,-94.0367,4.0,6.58559033,354.9471544,7.58,'11111222,11111222,11111222' 
TABS,ioos:station:wmo:42046:1,2014-05-02T19:00:00Z,27.8903,-94.0367,4.0,6.700582064,351.6762223,7.94,'11111222,11111222,11111222' 
TABS,ioos:station:wmo:42046:1,2014-05-02T19:30:00Z,27.8903,-94.0367,4.0,6.231476551,349.645624,7.25,'11111222,11111222,11111222' 
TABS,ioos:station:wmo:42046:1,2014-05-02T20:00:00Z,27.8903,-94.0367,4.0,6.786486573,346.5369258,7.92,'11111222,11111222,11111222' 
TABS,ioos:station:wmo:42046:1,2014-05-02T20:30:00Z,27.8903,-94.0367,4.0,6.598075477,338.7628225,7.77,'11111222,11111222,11111222' 
TABS,ioos:station:wmo:42046:1,2014-05-02T21:00:00Z,27.8903,-94.0367,4.0,5.675808312,335.8733624,7.28,'11111222,11111222,11111222' 
TABS,ioos:station:wmo:42046:1,2014-05-02T21:30:00Z,27.8903,-94.0367,4.0,5.746929615,335.7539176,6.71,'11111222,11111222,11111222' 
TABS,ioos:station:wmo:42046:1,2014-05-02T22:00:00Z,27.8903,-94.0367,4.0,5.700280695,340.1026045,6.85,'11111222,11111222,11111222' 
TABS,ioos:station:wmo:42046:1,2014-05-02T22:30:00Z,27.8903,-94.0367,4.0,5.798706752,330.5613687,6.86,'11111222,11111222,11111222' 
TABS,ioos:station:wmo:42046:1,2014-05-02T23:00:00Z,27.8903,-94.0367,4.0,4.819180428,335.3492625,6.06,'11111222,11111222,11111222' 
TABS,ioos:station:wmo:42046:1,2014-05-02T23:30:00Z,27.8903,-94.0367,4.0,4.66,333.2148567,5.77,'11111222,11111222,11111222' 
TABS,ioos:station:wmo:42046:1,2014-05-03T00:00:00Z,27.8903,-94.0367,4.0,4.210997507,336.7833875,5.16,'11111222,11111222,11111222' 
TABS,ioos:station:wmo:42046:1,2014-05-03T00:30:00Z,27.8903,-94.0367,4.0,3.130015974,323.3130307,3.77,'11111222,11111222,11111222' 
TABS,ioos:station:wmo:42046:1,2014-05-03T01:00:00Z,27.8903,-94.0367,4.0,3.156263614,317.3110208,3.83,'11111222,11111222,11111222' 
TABS,ioos:station:wmo:42046:1,2014-05-03T01:30:00Z,27.8903,-94.0367,4.0,2.907249559,313.4668007,3.68,'11111222,11111222,11111222' 
TABS,ioos:station:wmo:42046:1,2014-05-03T02:00:00Z,27.8903,-94.0367,4.0,2.28122774,297.6882891,3.01,'11111222,11111222,11111222' 
TABS,ioos:station:wmo:42046:1,2014-05-03T02:30:00Z,27.8903,-94.0367,4.0,3.776400402,300.9116445,4.53,'11111222,11111222,11111222' 
TABS,ioos:station:wmo:42046:1,2014-05-03T03:00:00Z,27.8903,-94.0367,4.0,3.053080412,292.5331974,3.87,'11111222,11111222,11111222' 
TABS,ioos:station:wmo:42046:1,2014-05-03T03:30:00Z,27.8903,-94.0367,4.0,2.796587206,283.4399202,3.36,'11111222,11111222,11111222' 
TABS,ioos:station:wmo:42046:1,2014-05-03T04:00:00Z,27.8903,-94.0367,4.0,2.840070422,269.5965162,3.57,'11111222,11111222,11111222' 
TABS,ioos:station:wmo:42046:1,2014-05-03T04:30:00Z,27.8903,-94.0367,4.0,2.290349318,268.9993045,3.04,'11111222,11111222,11111222' 
TABS,ioos:station:wmo:42046:1,2014-05-03T05:00:00Z,27.8903,-94.0367,4.0,2.662949493,248.6381392,3.18,'11111222,11111222,11111222' 
TABS,ioos:station:wmo:42046:1,2014-05-03T05:30:00Z,27.8903,-94.0367,4.0,2.973213749,236.5238,3.51,'11111222,11111222,11111222' 
TABS,ioos:station:wmo:42046:1,2014-05-03T06:00:00Z,27.8903,-94.0367,4.0,2.990953025,239.2334331,3.44,'11111222,11111222,11111222' 
TABS,ioos:station:wmo:42046:1,2014-05-03T06:30:00Z,27.8903,-94.0367,4.0,3.536000566,233.1625956,4.12,'11111222,11111222,11111222' 
TABS,ioos:station:wmo:42046:1,2014-05-03T07:00:00Z,27.8903,-94.0367,4.0,3.754490645,221.5449399,4.33,'11111222,11111222,11111222' 
TABS,ioos:station:wmo:42046:1,2014-05-03T07:30:00Z,27.8903,-94.0367,4.0,3.922307994,210.4879032,4.46,'11111222,11111222,11111222' 
TABS,ioos:station:wmo:42046:1,2014-05-03T08:00:00Z,27.8903,-94.0367,4.0,4.50388721,210.2657339,5.03,'11111222,11111222,11111222' 
TABS,ioos:station:wmo:42046:1,2014-05-03T08:30:00Z,27.8903,-94.0367,4.0,4.28042054,216.0668645,5.02,'11111222,11111222,11111222' 
TABS,ioos:station:wmo:42046:1,2014-05-03T09:00:00Z,27.8903,-94.0367,4.0,4.160252396,213.7283963,4.77,'11111222,11111222,11111222' 
TABS,ioos:station:wmo:42046:1,2014-05-03T09:30:00Z,27.8903,-94.0367,4.0,4.393005805,220.1062749,5.0,'11111222,11111222,11111222' 
TABS,ioos:station:wmo:42046:1,2014-05-03T10:00:00Z,27.8903,-94.0367,4.0,4.704550988,232.2532829,5.28,'11111222,11111222,11111222' 
TABS,ioos:station:wmo:42046:1,2014-05-03T10:30:00Z,27.8903,-94.0367,4.0,5.180212351,237.9360712,5.88,'11111222,11111222,11111222' 
TABS,ioos:station:wmo:42046:1,2014-05-03T11:00:00Z,27.8903,-94.0367,4.0,4.972936758,236.565651,5.53,'11111222,11111222,11111222' 
TABS,ioos:station:wmo:42046:1,2014-05-03T11:30:00Z,27.8903,-94.0367,4.0,4.991442677,240.8674196,5.72,'11111222,11111222,11111222' 
TABS,ioos:station:wmo:42046:1,2014-05-03T12:00:00Z,27.8903,-94.0367,4.0,5.12652904,239.783858,6.07,'11111222,11111222,11111222' 
TABS,ioos:station:wmo:42046:1,2014-05-03T12:30:00Z,27.8903,-94.0367,4.0,4.99001002,247.4950087,5.85,'11111222,11111222,11111222' 
TABS,ioos:station:wmo:42046:1,2014-05-03T13:00:00Z,27.8903,-94.0367,4.0,4.977650048,243.898308,5.65,'11111222,11111222,11111222' 
TABS,ioos:station:wmo:42046:1,2014-05-03T13:30:00Z,27.8903,-94.0367,4.0,4.673435567,243.7091507,5.67,'11111222,11111222,11111222' 
TABS,ioos:station:wmo:42046:1,2014-05-03T14:00:00Z,27.8903,-94.0367,4.0,4.955370824,242.86621,5.97,'11111222,11111222,11111222' 
TABS,ioos:station:wmo:42046:1,2014-05-03T14:30:00Z,27.8903,-94.0367,4.0,5.04686041,245.1614846,5.94,'11111222,11111222,11111222' 
TABS,ioos:station:wmo:42046:1,2014-05-03T15:00:00Z,27.8903,-94.0367,4.0,4.788193814,250.7325874,5.42,'11111222,11111222,11111222' 
TABS,ioos:station:wmo:42046:1,2014-05-03T15:30:00Z,27.8903,-94.0367,4.0,4.972001609,255.7960953,5.7,'11111222,11111222,11111222' 
TABS,ioos:station:wmo:42046:1,2014-05-03T16:00:00Z,27.8903,-94.0367,4.0,5.161240161,255.640697,6.17,'11111222,11111222,11111222' 
TABS,ioos:station:wmo:42046:1,2014-05-03T16:30:00Z,27.8903,-94.0367,4.0,4.674409054,253.8526006,5.28,'11111222,11111222,11111222' 
TABS,ioos:station:wmo:42046:1,2014-05-03T17:00:00Z,27.8903,-94.0367,4.0,4.629222397,253.561605,5.52,'11111222,11111222,11111222' 
TABS,ioos:station:wmo:42046:1,2014-05-03T17:30:00Z,27.8903,-94.0367,4.0,4.817686167,254.8387929,5.44,'11111222,11111222,11111222' 
TABS,ioos:station:wmo:42046:1,2014-05-03T18:00:00Z,27.8903,-94.0367,4.0,4.870821286,253.9092213,5.73,'11111222,11111222,11111222' 
TABS,ioos:station:wmo:42046:1,2014-05-03T18:30:00Z,27.8903,-94.0367,4.0,4.689317648,258.1868829,5.66,'11111222,11111222,11111222' 
TABS,ioos:station:wmo:42046:1,2014-05-03T19:00:00Z,27.8903,-94.0367,4.0,4.884669897,256.0206867,5.77,'11111222,11111222,11111222' 
TABS,ioos:station:wmo:42046:1,2014-05-03T19:30:00Z,27.8903,-94.0367,4.0,5.122206556,254.254384,5.96,'11111222,11111222,11111222' 
TABS,ioos:station:wmo:42046:1,2014-05-03T20:00:00Z,27.8903,-94.0367,4.0,4.879846309,255.7644514,5.83,'11111222,11111222,11111222' 
TABS,ioos:station:wmo:42046:1,2014-05-03T20:30:00Z,27.8903,-94.0367,4.0,5.30935966,259.4731774,6.13,'11111222,11111222,11111222' 
TABS,ioos:station:wmo:42046:1,2014-05-03T21:00:00Z,27.8903,-94.0367,4.0,4.879221249,253.570737,5.63,'11111222,11111222,11111222' 
TABS,ioos:station:wmo:42046:1,2014-05-03T21:30:00Z,27.8903,-94.0367,4.0,4.701967673,257.4712216,5.48,'11111222,11111222,11111222' 
TABS,ioos:station:wmo:42046:1,2014-05-03T22:00:00Z,27.8903,-94.0367,4.0,4.507604685,252.9720729,5.38,'11111222,11111222,11111222' 
TABS,ioos:station:wmo:42046:1,2014-05-03T22:30:00Z,27.8903,-94.0367,4.0,4.286268774,245.1689008,5.18,'11111222,11111222,11111222' 
TABS,ioos:station:wmo:42046:1,2014-05-03T23:00:00Z,27.8903,-94.0367,4.0,4.604790983,239.3137228,5.13,'11111222,11111222,11111222' 
TABS,ioos:station:wmo:42046:1,2014-05-03T23:30:00Z,27.8903,-94.0367,4.0,4.279299008,230.880254,4.94,'11111222,11111222,11111222' 
TABS,ioos:station:wmo:42046:1,2014-05-04T00:00:00Z,27.8903,-94.0367,4.0,4.495475503,222.2052139,5.35,'11111222,11111222,11111222' 
TABS,ioos:station:wmo:42046:1,2014-05-04T00:30:00Z,27.8903,-94.0367,4.0,4.548450286,217.6762398,5.27,'11111222,11111222,11111222' 
TABS,ioos:station:wmo:42046:1,2014-05-04T01:00:00Z,27.8903,-94.0367,4.0,4.779466497,214.6877011,5.59,'11111222,11111222,11111222' 
TABS,ioos:station:wmo:42046:1,2014-05-04T01:30:00Z,27.8903,-94.0367,4.0,5.047900554,213.2809516,5.76,'11111222,11111222,11111222' 
TABS,ioos:station:wmo:42046:1,2014-05-04T02:00:00Z,27.8903,-94.0367,4.0,5.357686068,206.8521536,6.29,'11111222,11111222,11111222' 
TABS,ioos:station:wmo:42046:1,2014-05-04T02:30:00Z,27.8903,-94.0367,4.0,5.309048879,209.075711,6.01,'11111222,11111222,11111222' 
TABS,ioos:station:wmo:42046:1,2014-05-04T03:00:00Z,27.8903,-94.0367,4.0,5.236000382,210.5322618,5.9,'11111222,11111222,11111222' 
TABS,ioos:station:wmo:42046:1,2014-05-04T03:30:00Z,27.8903,-94.0367,4.0,5.337312058,209.3988292,6.29,'11111222,11111222,11111222' 
TABS,ioos:station:wmo:42046:1,2014-05-04T04:00:00Z,27.8903,-94.0367,4.0,5.447090967,206.3770372,6.24,'11111222,11111222,11111222' 
TABS,ioos:station:wmo:42046:1,2014-05-04T04:30:00Z,27.8903,-94.0367,4.0,5.10694625,202.4474198,5.9,'11111222,11111222,11111222' 
TABS,ioos:station:wmo:42046:1,2014-05-04T05:00:00Z,27.8903,-94.0367,4.0,5.673182528,198.1796189,6.73,'11111222,11111222,11111222' 
TABS,ioos:station:wmo:42046:1,2014-05-04T05:30:00Z,27.8903,-94.0367,4.0,6.906844431,195.3644279,8.05,'11111222,11111222,11111222' 
TABS,ioos:station:wmo:42046:1,2014-05-04T06:00:00Z,27.8903,-94.0367,4.0,7.092601779,192.2924124,8.23,'11111222,11111222,11111222' 
TABS,ioos:station:wmo:42046:1,2014-05-04T06:30:00Z,27.8903,-94.0367,4.0,6.930815248,191.5695177,7.82,'11111222,11111222,11111222' 
TABS,ioos:station:wmo:42046:1,2014-05-04T07:00:00Z,27.8903,-94.0367,4.0,7.305812754,190.6487465,8.41,'11111222,11111222,11111222' 
TABS,ioos:station:wmo:42046:1,2014-05-04T07:30:00Z,27.8903,-94.0367,4.0,6.713367262,191.8624676,7.68,'11111222,11111222,11111222' 
TABS,ioos:station:wmo:42046:1,2014-05-04T08:00:00Z,27.8903,-94.0367,4.0,6.536551078,191.2929261,7.41,'11111222,11111222,11111222' 
TABS,ioos:station:wmo:42046:1,2014-05-04T08:30:00Z,27.8903,-94.0367,4.0,6.883778032,193.2692948,7.69,'11111222,11111222,11111222' 
TABS,ioos:station:wmo:42046:1,2014-05-04T09:00:00Z,27.8903,-94.0367,4.0,7.106532206,194.5057265,8.12,'11111222,11111222,11111222' 
TABS,ioos:station:wmo:42046:1,2014-05-04T09:30:00Z,27.8903,-94.0367,4.0,6.833688609,195.9686025,8.0,'11111222,11111222,11111222' 
TABS,ioos:station:wmo:42046:1,2014-05-04T10:00:00Z,27.8903,-94.0367,4.0,6.878560896,200.3319787,8.07,'11111222,11111222,11111222' 
TABS,ioos:station:wmo:42046:1,2014-05-04T10:30:00Z,27.8903,-94.0367,4.0,7.104378931,204.0035864,8.68,'11111222,11111222,11111222' 
TABS,ioos:station:wmo:42046:1,2014-05-04T11:00:00Z,27.8903,-94.0367,4.0,7.566095426,204.7700041,8.55,'11111222,11111222,11111222' 
TABS,ioos:station:wmo:42046:1,2014-05-04T11:30:00Z,27.8903,-94.0367,4.0,7.080579072,205.515681,8.5,'11111222,11111222,11111222' 
TABS,ioos:station:wmo:42046:1,2014-05-04T12:00:00Z,27.8903,-94.0367,4.0,6.995884504,205.3930736,8.0,'11111222,11111222,11111222' 
TABS,ioos:station:wmo:42046:1,2014-05-04T12:30:00Z,27.8903,-94.0367,4.0,6.669347794,209.7556779,7.69,'11111222,11111222,11111222' 
TABS,ioos:station:wmo:42046:1,2014-05-04T13:00:00Z,27.8903,-94.0367,4.0,6.103277808,214.9921488,7.26,'11111222,11111222,11111222' 
TABS,ioos:station:wmo:42046:1,2014-05-04T13:30:00Z,27.8903,-94.0367,4.0,5.660432846,216.1614546,6.65,'11111222,11111222,11111222' 
TABS,ioos:station:wmo:42046:1,2014-05-04T14:00:00Z,27.8903,-94.0367,4.0,5.662949761,210.6862679,6.48,'11111222,11111222,11111222' 
TABS,ioos:station:wmo:42046:1,2014-05-04T14:30:00Z,27.8903,-94.0367,4.0,5.692846388,215.0581101,6.94,'11111222,11111222,11111222' 
TABS,ioos:station:wmo:42046:1,2014-05-04T15:00:00Z,27.8903,-94.0367,4.0,5.732058967,217.1299096,6.8,'11111222,11111222,11111222' 
TABS,ioos:station:wmo:42046:1,2014-05-04T15:30:00Z,27.8903,-94.0367,4.0,5.339747185,220.6712403,6.4,'11111222,11111222,11111222' 
TABS,ioos:station:wmo:42046:1,2014-05-04T16:00:00Z,27.8903,-94.0367,4.0,5.110088062,217.2063917,6.11,'11111222,11111222,11111222' 
TABS,ioos:station:wmo:42046:1,2014-05-04T16:30:00Z,27.8903,-94.0367,4.0,4.774107246,217.2540674,5.47,'11111222,11111222,11111222' 
TABS,ioos:station:wmo:42046:1,2014-05-04T17:00:00Z,27.8903,-94.0367,4.0,4.876269066,214.4723437,5.68,'11111222,11111222,11111222' 
TABS,ioos:station:wmo:42046:1,2014-05-04T17:30:00Z,27.8903,-94.0367,4.0,5.130155943,210.0636359,5.8,'11111222,11111222,11111222' 
TABS,ioos:station:wmo:42046:1,2014-05-04T18:00:00Z,27.8903,-94.0367,4.0,5.134169845,206.1160268,5.91,'11111222,11111222,11111222' 
TABS,ioos:station:wmo:42046:1,2014-05-04T18:30:00Z,27.8903,-94.0367,4.0,5.253360829,202.0243505,6.36,'11111222,11111222,11111222' 